TimeEST,TemperatureF,Dew PointF,Humidity,Sea Level PressureIn,VisibilityMPH,Wind Direction,Wind SpeedMPH,Gust SpeedMPH,PrecipitationIn,Events,Conditions,WindDirDegrees,DateUTC
12:55 AM,36.0,35.1,97,29.82,0.8,ENE,4.6,-,0.03,Rain,Light Rain,70,2012-12-02 05:55:00
1:04 AM,36.0,35.1,97,29.80,0.5,ENE,5.8,-,0.00,Fog,Fog,60,2012-12-02 06:04:00
1:55 AM,37.0,35.1,93,29.80,0.5,ESE,3.5,-,0.01,Fog,Fog,110,2012-12-02 06:55:00
2:55 AM,37.9,36.0,93,29.79,0.2,ESE,3.5,-,N/A,Fog,Fog,120,2012-12-02 07:55:00
3:55 AM,37.9,36.0,93,29.79,0.2,Calm,Calm,-,0.01,Fog,Fog,0,2012-12-02 08:55:00
4:55 AM,37.0,35.1,93,29.78,0.2,Calm,Calm,-,0.01,Fog,Fog,0,2012-12-02 09:55:00
5:55 AM,37.0,35.1,93,29.78,0.2,WNW,3.5,-,0.01,Fog,Fog,290,2012-12-02 10:55:00
6:55 AM,37.0,35.1,93,29.79,0.2,Calm,Calm,-,N/A,Fog,Fog,0,2012-12-02 11:55:00
7:55 AM,36.0,35.1,97,29.80,0.2,West,3.5,-,N/A,Fog,Fog,260,2012-12-02 12:55:00
8:55 AM,39.0,37.9,96,29.82,0.5,West,5.8,-,N/A,Fog,Fog,260,2012-12-02 13:55:00
9:30 AM,39.9,37.9,93,29.82,1.0,West,5.8,-,N/A,,Overcast,280,2012-12-02 14:30:00
9:42 AM,39.9,39.0,97,29.82,0.8,WNW,4.6,-,N/A,,Overcast,290,2012-12-02 14:42:00
9:55 AM,39.9,37.9,93,29.85,0.8,West,5.8,-,N/A,,Overcast,280,2012-12-02 14:55:00
10:27 AM,39.9,39.0,97,29.84,1.0,WNW,6.9,-,N/A,,Overcast,290,2012-12-02 15:27:00
10:55 AM,39.9,39.0,97,29.86,1.5,WNW,6.9,-,N/A,,Overcast,290,2012-12-02 15:55:00
11:01 AM,39.9,37.9,93,29.85,2.0,WNW,6.9,-,N/A,,Overcast,290,2012-12-02 16:01:00
11:55 AM,39.9,37.9,93,29.88,1.8,West,4.6,-,N/A,,Overcast,270,2012-12-02 16:55:00
12:07 PM,39.9,37.9,93,29.86,2.0,West,5.8,-,N/A,,Overcast,280,2012-12-02 17:07:00
12:19 PM,39.9,37.9,93,29.86,1.5,West,3.5,-,N/A,,Overcast,270,2012-12-02 17:19:00
12:32 PM,39.9,37.9,93,29.87,1.8,West,4.6,-,N/A,,Overcast,270,2012-12-02 17:32:00
12:36 PM,39.9,37.9,93,29.87,2.0,West,5.8,-,N/A,,Overcast,270,2012-12-02 17:36:00
12:55 PM,39.9,37.9,93,29.88,2.5,West,5.8,-,N/A,,Overcast,280,2012-12-02 17:55:00
1:03 PM,41.0,37.9,89,29.87,3.0,WNW,4.6,-,N/A,,Overcast,290,2012-12-02 18:03:00
1:14 PM,39.9,37.9,93,29.87,2.5,West,4.6,-,N/A,,Overcast,280,2012-12-02 18:14:00
1:40 PM,39.9,37.9,93,29.87,3.0,West,5.8,-,N/A,,Overcast,270,2012-12-02 18:40:00
1:55 PM,39.9,37.9,93,29.89,3.0,West,5.8,-,N/A,,Overcast,270,2012-12-02 18:55:00
2:11 PM,39.9,37.9,93,29.88,2.5,West,8.1,-,0.00,Rain,Light Rain,270,2012-12-02 19:11:00
2:26 PM,39.9,37.9,93,29.88,4.0,West,6.9,-,0.01,,Overcast,280,2012-12-02 19:26:00
2:55 PM,39.9,37.9,93,29.90,6.0,West,6.9,-,0.01,,Overcast,280,2012-12-02 19:55:00
3:16 PM,39.9,37.9,93,29.90,6.0,West,5.8,-,N/A,,Overcast,280,2012-12-02 20:16:00
3:55 PM,41.0,37.9,89,29.94,8.0,WNW,8.1,-,N/A,,Overcast,290,2012-12-02 20:55:00
4:31 PM,41.0,37.0,86,29.96,10.0,WNW,8.1,-,N/A,,Overcast,300,2012-12-02 21:31:00
4:55 PM,41.0,37.0,86,29.99,10.0,WNW,6.9,-,N/A,,Overcast,290,2012-12-02 21:55:00
5:39 PM,39.9,36.0,86,29.98,10.0,WNW,6.9,-,N/A,,Overcast,300,2012-12-02 22:39:00
5:55 PM,39.0,36.0,89,29.99,10.0,NNW,5.8,-,N/A,,Mostly Cloudy,330,2012-12-02 22:55:00
6:55 PM,37.0,33.1,86,30.01,10.0,WNW,3.5,-,N/A,,Clear,290,2012-12-02 23:55:00
7:29 PM,37.0,34.0,89,30.03,10.0,West,3.5,-,N/A,,Mostly Cloudy,270,2012-12-03 00:29:00
7:36 PM,37.0,34.0,89,30.03,10.0,West,3.5,-,N/A,,Mostly Cloudy,270,2012-12-03 00:36:00
7:55 PM,37.9,35.1,89,30.05,10.0,Calm,Calm,-,N/A,,Mostly Cloudy,0,2012-12-03 00:55:00
8:55 PM,35.1,33.1,92,30.07,6.0,WSW,4.6,-,N/A,,Overcast,240,2012-12-03 01:55:00
9:55 PM,36.0,34.0,93,30.07,6.0,SSW,3.5,-,N/A,,Overcast,200,2012-12-03 02:55:00
10:55 PM,36.0,33.1,89,30.06,7.0,South,3.5,-,N/A,,Overcast,170,2012-12-03 03:55:00
11:55 PM,36.0,33.1,89,30.09,9.0,West,4.6,-,N/A,,Overcast,260,2012-12-03 04:55:00